Home   Weather   Słupsk   Past weeks

Flag for Poland Past Weather in Słupsk, Poland — Yesterday and Last 2 Weeks

Now
41 °F

Light rain. Low clouds.


Feels Like: 34 °F
Forecast: 38 / 40 °F
Wind: 10 mph from Southwest

Location: Leba

Current Time: Feb 22, 2017 at 12:01:12 pm

Latest Report: Feb 22, 2017 at 11:00 am


Visibility: 9 mi

Pressure: 29.21 "Hg

Humidity: 97%

Dew Point: 40 °F

Location of SłupskLocation

Past Weather in Słupsk — Graph

°F

Słupsk Temperature Yesterday

Maximum temperature yesterday: 42 °F (at 12:00 am)
Minimum temperature yesterday: 38 °F (at 11:00 pm)
Average temperature yesterday: 41 °F

High & Low Weather Summary for the Past Weeks

 TemperatureHumidityPressure
High47 °F (Feb 15, 1:00 pm)100% (Feb 14, 10:00 pm)30.76 "Hg (Feb 14, 10:00 pm)
Low16 °F (Feb 9, 3:00 am)38% (Feb 10, 1:00 pm)29.26 "Hg (Feb 22, 9:00 am)
Average30 °F86%30.31 "Hg
* Reported Feb 7 10:00 am — Feb 22 10:00 am, Słupsk, Weather by CustomWeather, © 2017

Note: Actual official high and low records may vary slightly from our data, if they occured in-between our weather recording intervals... More about our weather records

Advertising

Słupsk Weather History for the Previous 24 Hours

Scroll right to see more
 ConditionsComfort  
Time TempWeatherWind HumidityBarometerVisibility
10:00 am
Wed, Feb 22
N/APassing clouds.24 mphN/AN/A2 mi
9:00 am38 °FLight rain. Overcast.12 mph94%29.26 "Hg5 mi
8:00 am38 °FLight rain. Overcast.12 mph90%29.35 "Hg10 mi
7:00 am38 °FOvercast.8 mph88%29.41 "Hg12 mi
6:00 am38 °FOvercast.7 mph89%29.47 "Hg12 mi
5:00 am38 °FOvercast.8 mph92%29.56 "Hg12 mi
4:00 am36 °FOvercast.8 mph96%29.60 "Hg9 mi
3:00 am37 °FLow clouds.9 mph97%29.63 "Hg7 mi
2:00 am38 °FOvercast.10 mph95%29.65 "Hg9 mi
1:00 am39 °FPassing clouds.26 mph94%29.67 "Hg2 mi
12:00 am38 °FOvercast.8 mph94%29.67 "Hg10 mi
11:00 pm
Tue, Feb 21
38 °FOvercast.5 mph96%29.67 "Hg8 mi
9:00 pm39 °FOvercast.6 mph92%29.64 "Hg10 mi
8:00 pm40 °FPassing clouds.31 mph88%29.60 "Hg3 mi
6:00 pm40 °FPassing clouds.25 mph85%29.54 "Hg16 mi
5:00 pm40 °FPassing clouds.23 mph85%29.50 "Hg7 mi
4:00 pmN/APassing clouds.24 mphN/AN/A31 mi
3:00 pm40 °FOvercast.17 mph89%29.44 "Hg9 mi
2:00 pm41 °FPassing clouds.21 mph87%29.44 "Hg31 mi
1:00 pm41 °FOvercast.16 mph85%29.44 "Hg10 mi
12:00 pm42 °FPartly sunny.16 mph85%29.44 "Hg9 mi
Weather by CustomWeather, © 2017

See weather overviewHow to use our weather pages